Location: Middle Street
(51.7167°N, 0.0333°E)
Time: 02:17:43
(UTC+00:00)

CZ-2C R/B - Pass Details

Date: 20 January 2021
Orbit: 785 x 870 km, 98.2° (Epoch: 28 February)

Event Time Altitude Azimuth Distance (km) Brightness Sun altitude
Exits shadow 19:27:22 50° 171° (S) 1,087 3.1 -27.3°
Drops below altitude 10° 19:31:30 10° 188° (S) 2,504 5.2 -27.9°
Sets 19:33:54 0° 191° (S) 3,442 6.0 -28.3°
